Regional Weather Roundup
Issued by NWS Cleveland, OH

Home | Current Version | Previous Version | Text Only | Print | Product List | Glossary Off
Versions: 1 2 3 4 5 6 7 8 9 10 11 12 13 14 15 16 17 18 19 20 21 22 23 24 25 26 27 28 29 30 31 32 33 34 35 36 37 38 39 40 41 42 43 44 45 46 47 48 49 50

000
ASUS41 KCLE 172200
RWRCLE
OHIO REGIONAL WEATHER ROUNDUP
NATIONAL WEATHER SERVICE WILMINGTON, OH
600 PM EDT TUE OCT 17 2017

NOTE: "FAIR" INDICATES FEW OR NO CLOUDS BELOW 12,000 FEET WITH NO
SIGNIFICANT WEATHER AND/OR OBSTRUCTIONS TO VISIBILITY.

OHZ001>008-015>018-024>027-034-035-043-044-172300-
   NORTHWEST OHIO

CITY           SKY/WX    TMP DP  RH WIND       PRES   REMARKS
DEFIANCE       FAIR      66  38  35 SW13G21   30.18F
FINDLAY        FAIR      65  38  36 SW12      30.19F
TOLEDO EXPRESS FAIR      67  42  40 SW15      30.16F
TOLEDO EXEC    FAIR      67  40  37 SW13G22   30.17F
LIMA           FAIR      64  39  39 SW10      30.22F HAZE
$$

OHZ009>014-019>023-028>033-038-089-172300-
   NORTHEAST OHIO

CITY           SKY/WX    TMP DP  RH WIND       PRES   REMARKS
CLE-HOPKINS    FAIR      65  38  36 SW15      30.21F
CLE-LAKEFRONT  FAIR      65  38  36 SW14      30.18S
CUY CO. ARPT   CLEAR     66  39  37 SW15      30.20F
LORAIN-ELYRIA  FAIR      64  35  34 W12       30.20F
ASHTABULA      FAIR      63  38  39 SW10      30.19F
AKRON-CANTON   FAIR      63  37  38 SW13      30.23S
WOOSTER        NOT AVBL
MANSFIELD      FAIR      62  38  40 SW12      30.22F
YOUNGSTOWN     FAIR      61  38  42 SW7       30.22S
$$

OHZ042-051>053-060>062-070>072-077>081-172300-
  SOUTHWEST OHIO

CITY           SKY/WX    TMP DP  RH WIND       PRES   REMARKS
CINC-COVINGTON FAIR      63  41  44 SW5       30.26F
CINC-LUNKEN    FAIR      64  45  49 S6        30.27S
HAMILTON       FAIR      66  42  41 SW5       30.27S
DAYTON         NOT AVBL
WRIGHT-PAT AFB FAIR      64  37  36 SW7       30.25S
DAYTON GENERAL FAIR      63  38  39 S6        30.25F
WILMINGTON     FAIR      62  41  46 SW7       30.26S
$$

OHZ036-037-039>041-045>050-054>059-063>069-073>076-082>088-172300-
  CENTRAL AND SOUTHEAST OHIO

CITY           SKY/WX    TMP DP  RH WIND       PRES   REMARKS
COLUMBUS       FAIR      65  38  36 SW9       30.25S
OSU AIRPORT    FAIR      63  39  41 W9        30.24F
BOLTON FIELD   CLEAR     64  39  39 SW6       30.26S
RICKENBACK AFB NOT AVBL
NEWARK         FAIR      64  37  36 SW6       30.25S
MARION         FAIR      63  37  38 SW10      30.23F
LANCASTER      FAIR      62  41  46 S6        30.26F
ZANESVILLE     FAIR      63  38  39 SW7       30.26S
NEW PHILLY     FAIR      64  39  39 SW5       30.25F
$$




USA.gov is the U.S. government's official web portal to all federal, state and local government web resources and services.